Melville Hall, Dominica

10:24 AM AST on June 22, 2018 (GMT -0400)
Melville Hall

Weather History for TDPD - September, 2017

Change the Weather History Date:

Sunday, September 3, 2017

  Actual Average Record
Temperature  
Mean Temperature 82 °F -  
Max Temperature 89 °F 85 °F 89 °F (2003)
Min Temperature 75 °F 75 °F 33 °F (2003)
Cooling Degree Days 17    
Growing Degree Days 32 (Base 50)    
Moisture  
Dew Point 75 °F    
Average Humidity 70    
Maximum Humidity 89    
Minimum Humidity 54    
Precipitation  
Precipitation 0.00 in 0.40 in - ()
Sea Level Pressure  
Sea Level Pressure 29.98 in    
Wind  
Wind Speed 6 mph ()    
Max Wind Speed 10 mph    
Max Gust Speed -    
Visibility 9.0 miles    
Events      
Averages and records for this station are not official NWS values.
T = Trace of Precipitation, MM = Missing Value Source: Averaged Metar Reports

Daily Weather History Graph

Daily Weather History Graph

Search for Another Location

Airport or City:

Astronomy

Sep. 03, 2017 Rise Set
Actual Time 5:52 AM AST 6:15 PM AST
Civil Twilight 5:31 AM AST 6:37 PM AST
Nautical Twilight 5:05 AM AST 7:02 PM AST
Astronomical Twilight 4:40 AM AST 7:28 PM AST
Moon 4:30 PM AST (9/3) 3:25 AM AST (9/3)
Length of Visible Light 13h 06m
Length of Day
12h 23m
Waxing Gibbous, 93% of the Moon is Illuminated
Sep 3
Waxing Gibbous
Sep 6
Full
Sep 13
Last Quarter
Sep 20
New
Sep 27
First Quarter

Hourly Weather History & Observations

Time (AST) Temp. Heat Index Dew Point Humidity Pressure Visibility Wind Dir Wind Speed Gust Speed Precip Events Conditions
6:00 AM 77.0 °F - 73.4 °F 89% 29.98 in 6.2 mi West 6.9 mph - N/A   Partly Cloudy
7:00 AM 80.6 °F 87.1 °F 77.0 °F 89% 30.01 in 6.2 mi West 5.8 mph - N/A   Partly Cloudy
8:00 AM 87 °F - 77 °F 66% 30.03 in 17 mi SE 2.3 mph - -   Partly Cloudy
8:00 AM 86.0 °F 96.9 °F 77.0 °F 74% 30.01 in 6.2 mi SE 2.3 mph - N/A   Partly Cloudy
9:00 AM 86.0 °F 95.1 °F 75.2 °F 70% 30.01 in 6.2 mi ESE 6.9 mph - N/A   Partly Cloudy
10:00 AM 87.8 °F 97.6 °F 75.2 °F 66% 30.04 in 6.2 mi ESE 6.9 mph - N/A   Partly Cloudy
11:00 AM 89 °F - 74 °F 54% 30.03 in 17 mi ESE 8.1 mph - -   Partly Cloudy
11:00 AM 87.8 °F 97.6 °F 75.2 °F 66% 30.01 in 6.2 mi ESE 8.1 mph - N/A   Partly Cloudy
12:00 PM 89.6 °F 99.8 °F 75.2 °F 62% 30.01 in 6.2 mi ESE 9.2 mph - N/A   Scattered Clouds
1:00 PM 89.6 °F 99.8 °F 75.2 °F 62% 29.98 in 6.2 mi ESE 8.1 mph - N/A   Scattered Clouds
2:00 PM 88 °F - 75 °F 58% 29.96 in 19 mi ESE 10.4 mph - -   Partly Cloudy
2:00 PM 87.8 °F 97.6 °F 75.2 °F 66% 29.95 in 6.2 mi ESE 10.4 mph - N/A   Scattered Clouds
3:00 PM 87.8 °F 95.6 °F 73.4 °F 62% 29.95 in 6.2 mi ESE 9.2 mph - N/A   Scattered Clouds
4:00 PM 87.8 °F 97.6 °F 75.2 °F 66% 29.92 in 6.2 mi ESE 8.1 mph - N/A   Scattered Clouds
5:00 PM 86 °F - 75 °F 62% 29.95 in 17 mi East 6.9 mph - -   Partly Cloudy
5:00 PM - - 75.2 °F N/A% 29.95 in 6.2 mi East 6.9 mph - N/A   Scattered Clouds
6:00 PM 86.0 °F 95.1 °F 75.2 °F 70% 29.95 in 6.2 mi SE 2.3 mph - N/A   Scattered Clouds
7:00 PM 82.4 °F 89.5 °F 75.2 °F 79% 29.95 in 6.2 mi West 5.8 mph - N/A   Mostly Cloudy
8:00 PM 80 °F - 75 °F 81% 29.98 in 17 mi West 4.6 mph - -   Partly Cloudy
8:00 PM 80.6 °F 86.2 °F 75.2 °F 84% 29.98 in 6.2 mi West 4.6 mph - N/A   Scattered Clouds